User: anonymous   Login
Location: Unspecified
(0.0000°N, 0.0000°E)
Time: 01:00:17
(UTC+00:00)
Language:

STARLINK-35660 - Orbit

View from above orbital plane
View from above orbital plane
View from above satellite
View from above satellite

Ground track
Ground track

The orbit is defined by the following mean orbital elements,

1 67003U          26145.40216843 +.00000000 +00000-0 +36843-3 0 00002
2 67003  70.0007 261.2349 0003421 268.3482  91.7285 14.98338222    06
Epoch (UTC): 25 May 2026 09:39:07
Eccentricity: 0.0003421
inclination: 70.0007°
perigee height: 570 km
apogee height: 574 km
right ascension of ascending node: 261.2349°
argument of perigee: 268.3482°
revolutions per day: 14.98338222
mean anomaly at epoch: 91.7285°

The dashed part of the orbit path shows where the satellite is in the earth's shadow,  

DLR